THOR ABLESTAR DEB, 38521

Orbit data source: Space-Track

THOR ABLESTAR DEB, 38521 is space debris in LEO originally from a launch on Sat, 28 Sep 1963 UTC launched from the Air Force Western Test Range (AFWTR). Debris objects in space refer to the collection of defunct objects orbiting the Earth. Examples of debris include non-operational satellites, rocket bodies, and fragments generated from explosions, collisions, or faulty payload assembly.

Loading next visibility...
Identifier
38521, 1963-038Q
Orbit
LEO
Country
Flag of USUS
Related business
Manufacturer
Unknown
Mission
Spacecraft
Bus & Motor
Unknown
Mass
Unknown
Launch date (UTC)
1963-09-28 (62 years ago)
Launch vehicle
Unknown
Launch site
Air Force Western Test Range (AFWTR)
Object type
Payload
Rocket body
Debris
Shape & HBR
Unknown
Radar Cross Section
Small (<0.1 m²)

Expand to show TLE details & history
Last TLE update: 6 days ago

TLE from 6 days ago
0 THOR ABLESTAR DEB
1 38521U 63038Q   25237.56243237  .00000087  00000-0  12931-3 0  9994
2 38521  89.9818 333.9449 0042760 112.6470 310.9345 13.45370729595756
Epoch: 2025-08-25T13:29Z
TLE epoch observation values (Epoch: 2025-08-25T13:29:54.156Z)
Latitude
63.29502°
Longitude
157.43854°
Altitude
1,079.46 km
Speed
7.328 km/s
True Right ascension
22h 15m 55s
True Declination
63° 09' 46"
Sunlit
Object was in daylight at epoch
Visualization orbit readout
Latitude
Unknown
Longitude
Unknown
Altitude
Unknown
Speed
Unknown
Apparent Right ascension
Unknown
Apparent Declination
Unknown
Sunlit
N/A
Visualization observer readout
Local Sidereal Time
13:46:24
Azimuth
Unknown
Elevation
Unknown
Doppler factor
Unknown
Orbital elements
Apogee altitude
1,118.314 km
Perigee altitude
1,054.478 km
Semi-major axis
7,464.533 km
Eccentricity
0.00428
Inclination
89.9818°
RAAN
333.9449°
Arg. of periapsis
112.647°
True anomaly
310.56303°
Mean anomaly
310.9345°
Eccentric anomaly
310.7489°
Mean motion
3.36542 °/min
Orbital period
106.97 mins
BSTAR
0.00012931
Loading maneuver chart data...
Computing Atmospheric mass density...

Documentation

Showing up to 5 results
|